This is the latest recevied weather packets stored in our database for station/object IU5GBO-13. If no packets are shown the sender has not sent any weather packets the latest 10 day(s).
| Time | Temp. | Humidity | Pressure | Rain* | Wind** | Luminosity | Snow |
|---|---|---|---|---|---|---|---|
| 1777635974 | 22.22° C | 17% | 1024.2 hPa | - | - | - | - |
| 1777635374 | 22.22° C | 17% | 1024.4 hPa | - | - | - | - |
| 1777634774 | 22.22° C | 18% | 1024.4 hPa | - | - | - | - |
| 1777634174 | 21.67° C | 18% | 1024.5 hPa | - | - | - | - |
| 1777633575 | 22.22° C | 18% | 1024.6 hPa | - | - | - | - |
| 1777632974 | 22.22° C | 17% | 1024.7 hPa | - | - | - | - |
| 1777632374 | 21.67° C | 18% | 1024.7 hPa | - | - | - | - |
| 1777631774 | 21.11° C | 18% | 1024.9 hPa | - | - | - | - |
| 1777631174 | 21.11° C | 18% | 1024.9 hPa | - | - | - | - |
| 1777630574 | 21.11° C | 20% | 1025.1 hPa | - | - | - | - |
| 1777629974 | 20.56° C | 23% | 1025.1 hPa | - | - | - | - |
| 1777629374 | 20° C | 23% | 1025 hPa | - | - | - | - |
| 1777628774 | 20° C | 23% | 1025.1 hPa | - | - | - | - |
| 1777628174 | 20° C | 23% | 1025.2 hPa | - | - | - | - |
| 1777627574 | 19.44° C | 26% | 1025.1 hPa | - | - | - | - |
| 1777626974 | 19.44° C | 25% | 1025.1 hPa | - | - | - | - |
| 1777626374 | 18.89° C | 25% | 1025.3 hPa | - | - | - | - |
| 1777625774 | 18.89° C | 26% | 1025.3 hPa | - | - | - | - |
| 1777625174 | 19.44° C | 25% | 1025.4 hPa | - | - | - | - |
| 1777624574 | 18.89° C | 25% | 1025.4 hPa | - | - | - | - |
| 1777623974 | 18.33° C | 25% | 1025.4 hPa | - | - | - | - |
| 1777623374 | 18.33° C | 26% | 1025.6 hPa | - | - | - | - |
| 1777622774 | 18.33° C | 27% | 1025.3 hPa | - | - | - | - |
| 1777622174 | 18.33° C | 27% | 1025.3 hPa | - | - | - | - |
| 1777621574 | 17.78° C | 27% | 1025.4 hPa | - | - | - | - |
* Rain since midnight (hover to see other rain measurements)
** Current wind speed in m/s (hover to see current wind gust speed)